Back to catalog

STARLINK-35311

AliveCommunicationsVLEO
NORAD 66032·PAYLOAD·🇺🇸 United States

Launched Oct 16, 2025 from Cape Canaveral Space Force Station

Loading…

Next Passes (next 24 hours)

TLE

FreshSource: CelesTrak SupGP

Epoch: Sep 14, 2026, 21:10 UTC

1 66032C 25232AD  26257.88243056  .00006052  00000+0  17887-3 0  2572
2 66032  53.1583 301.6713 0001255  92.9397 149.0536 15.34377091    16

Track STARLINK-35311 in real time with AllMySat

Download on the App Store